Find Starlink 2096

NORAD ID: 47376 Int'l Des: 2021-005 Owner: SPXS Country: US Constellation: starlink operational
LEOCIRCULARSTARLINK_TYPE

Live Position

Loading 3D Globe...

About Starlink 2096

Description loading...

Upcoming Passes

Passes for default location (London). Set your location on the main map for personalized predictions.

Altitude History

Loading altitude history...

Two-Line Element Set

1 47376U 21005AD 26104.14336932 -.00010241 00000-0 -33375-3 0 9993
2 47376 53.1605 257.8095 0001137 99.5310 260.5819 15.30234512288458
Epoch: Apr 14, 2026 • Age: 15 hours

Current Status

Altitude 489.4 km
Velocity 7.62 km/s
Sub-Earth Point -41.35°S, 5.68°W
Launch Date Jan 20, 2021
Age 5.2 years
Type internet

Technical Details

Classification Payload
Mass 260.00 kg
Dry Mass 248.00 kg
Total Mass 260.00 kg
Length 0.20 m
Diameter 2.80 m
Span 9.00 m
Shape Box + pan
Manufacturer SPXS
Bus Type Starlink
Phase Status In Orbit
Owner/State SPXS/US

Most Searched